#timestamp,LO_Frequency,Hit,StdDev 
1610028015.2,286046995.4,N
1610028035.1,286046997.5,N
1610028036.0,286046997.5,N
1610028055.8,286046995.7,N
1610028075.7,286046995.4,N
1610028095.5,286046995.3,N
1610028115.3,286046995.5,N
1610028135.2,286046995.7,N
1610028155.0,286046996.3,N
1610028155.9,286046996.3,N
1610028175.7,286046996.4,N
1610028195.6,286046995.7,Y
1610028215.4,286046999.2,P
1610028235.3,286046996.5,P
1610028255.1,286046999.5,N
1610028275.8,286046996.5,N
1610028295.7,286046997.3,N
1610028315.5,286046996.5,N
1610028335.4,286046997.0,N
1610028355.2,286046997.2,N
1610028375.0,286046997.2,N
1610028375.9,286046997.2,N
1610028395.8,286046996.9,Y
1610028415.6,286046999.9,P
1610028435.5,286047001.1,N
1610028455.3,286047000.8,N
1610028475.1,286047001.1,N
1610028495.9,286046998.5,N
1610028515.7,286046998.6,N
1610028535.5,286047000.7,N
1610028555.4,286047000.9,N
1610028575.2,286046998.5,N
1610028595.1,286047001.0,N
1610028596.0,286047001.0,N
1610028615.8,286047000.6,N
1610028635.6,286047001.0,N
1610028655.5,286047001.0,N
1610028675.3,286047000.8,N
1610028695.2,286046998.3,N
1610028715.9,286046999.3,N
1610028735.7,286046998.9,N
1610028755.6,286046999.6,N
1610028775.4,286046999.2,N
1610028795.2,286046998.4,N
1610028815.1,286046999.3,N
1610028816.0,286046999.3,N
1610028835.8,286046997.2,N
1610028855.7,286046996.9,N
1610028875.5,286046996.9,N
1610028895.3,286046996.6,N
1610028915.2,286046996.9,N
1610028935.0,286046997.0,N
1610028935.9,286046997.0,N
1610028955.8,286046996.6,N
1610028975.6,286046996.5,N
1610028995.4,286046996.7,N
1610029015.3,286046996.6,N
1610029035.1,286046996.7,N
1610029055.8,286046997.1,N
1610029075.7,286046997.1,N
1610029095.5,286046996.7,N
1610029115.4,286046997.3,N
1610029135.2,286046997.2,N
1610029155.0,286046997.1,N
1610029155.9,286046997.1,N
1610029175.8,286046997.5,N
1610029195.6,286046997.6,N
1610029215.5,286046997.3,N
1610029235.3,286046995.1,Y
1610029255.1,286046998.9,P
1610029275.9,286046998.9,N
1610029295.7,286046998.2,N
1610029315.5,286046998.4,N
1610029335.4,286046999.3,N
1610029355.2,286046998.4,N
1610029375.1,286046999.3,N
1610029376.0,286046999.3,N
1610029395.8,286046998.9,N
1610029415.6,286046999.2,N
1610029435.5,286046999.5,N
1610029455.3,286046999.5,N
1610029475.2,286046999.3,N
1610029495.9,286046999.1,N
1610029515.7,286046996.5,Y
1610029535.6,286047001.2,P
1610029555.4,286046998.3,N
1610029575.3,286046998.5,N
1610029595.1,286046998.5,N
1610029596.0,286046998.5,N
1610029615.8,286046998.7,N
1610029635.7,286046998.7,N
1610029655.5,286046999.1,N
1610029675.4,286046999.0,N
1610029695.2,286046999.4,N
1610029715.0,286046999.6,N
1610029715.9,286046999.6,N
1610029735.8,286046999.1,N
1610029755.6,286046996.6,Y
1610029775.4,286046999.3,P
1610029795.3,286046998.8,P
1610029815.1,286046999.0,P
1610029835.9,286046998.2,Y
1610029855.7,286047000.6,P
1610029875.5,286047001.2,N
1610029895.4,286046998.5,N
1610029915.2,286046998.1,N
1610029935.1,286047000.4,N
1610029936.0,286047000.4,N
1610029955.8,286047001.1,N
1610029975.6,286047001.2,N
1610029995.5,286047000.3,N
1610030015.3,286047000.0,N
1610030035.1,286047000.9,N
1610030055.9,286047001.2,N
1610030075.7,286047000.9,N
1610030095.6,286047000.7,N
1610030115.4,286046998.1,N
1610030135.2,286046998.2,N
1610030155.1,286046998.1,N
1610030156.0,286046998.1,N
1610030175.8,286046998.9,N
1610030195.7,286046999.0,N
1610030215.5,286046998.8,N
1610030235.3,286046998.7,N
1610030255.2,286046998.2,N
1610030275.0,286046998.2,N
1610030275.9,286046998.2,N
1610030295.8,286046998.2,N
1610030315.6,286046999.0,N
1610030335.4,286046998.6,N
1610030355.3,286046998.1,N
1610030375.1,286046999.3,N
1610030395.8,286046998.4,N
1610030415.7,286046999.3,N
1610030435.5,286046998.2,N
1610030455.4,286046998.8,N
1610030475.2,286046998.5,N
1610030495.0,286047000.8,N
1610030495.9,286047000.8,N
1610030515.8,286047000.8,N
1610030535.6,286046998.2,N
1610030555.5,286046998.5,N
1610030575.3,286046998.4,N
1610030595.1,286046996.5,Y
1610030615.9,286046998.1,P
1610030635.7,286046998.5,P
1610030655.5,286046999.0,N
1610030675.4,286046998.3,Y
1610030695.2,286047001.0,P
1610030715.1,286047001.0,N
1610030716.0,286047001.0,N
1610030735.8,286046998.2,N
1610030755.6,286047000.7,N
1610030775.5,286047001.2,N
1610030795.3,286047000.5,N
1610030815.2,286046998.2,N
1610030835.9,286047001.2,N
1610030855.7,286046998.7,N
1610030875.6,286046998.5,N
1610030895.4,286046998.8,N
1610030915.2,286047001.1,N
1610030935.1,286046998.5,N
1610030936.0,286046998.5,N
1610030955.8,286046998.2,N
1610030975.7,286046998.4,N
1610030995.5,286046998.9,N
1610031015.3,286046998.7,N
1610031035.2,286046998.9,N
1610031055.0,286046999.1,N
1610031055.9,286046999.1,N
1610031075.8,286046999.0,N
1610031095.6,286046999.3,N
1610031115.4,286046998.7,N
1610031135.3,286046998.9,N
1610031155.1,286046999.0,N
1610031175.9,286046999.4,N
1610031195.7,286046998.7,N
1610031215.5,286046998.5,N
1610031235.4,286046999.0,N
1610031255.2,286046999.3,N
1610031275.0,286046999.2,N
1610031275.9,286046999.2,N
1610031295.8,286046999.4,N
1610031315.6,286046997.2,Y
1610031335.5,286046998.8,P
1610031355.3,286046998.3,P
1610031375.1,286047001.2,P
1610031395.9,286046998.9,N
1610031415.7,286046998.2,N
1610031435.6,286047001.2,N
1610031455.4,286046998.4,N
1610031475.2,286046998.9,N
1610031495.1,286046998.8,N
1610031496.0,286046998.8,N
1610031515.8,286046998.9,N
1610031535.6,286046998.9,N
1610031555.5,286046998.7,N
1610031575.3,286046999.3,N
1610031595.2,286046998.3,N
